Waukegan, IL

10:45 AM CDT on August 17, 2017 (GMT -0500)
Waukegan Regional

Weather History for KUGN - August, 2014

Change the Weather History Date:

Thursday, August 21, 2014

  Actual Average Record
Temperature  
Mean Temperature 70 °F -  
Max Temperature 75 °F 79 °F 95 °F (2003)
Min Temperature 65 °F 61 °F 50 °F (2004)
Degree Days  
Heating Degree Days 0 0  
Month to date heating degree days 9 0  
Since 1 June heating degree days 116 98  
Since 1 July heating degree days 43 12  
Cooling Degree Days 5 5  
Month to date cooling degree days 86 122  
Year to date cooling degree days 293 457  
Since 1 June cooling degree days 270 432  
Growing Degree Days 20 (Base 50)    
Moisture  
Dew Point 69 °F    
Average Humidity 91    
Maximum Humidity 100    
Minimum Humidity 82    
Precipitation  
Precipitation 0.48 in 0.12 in 0.48 in (2014)
Month to date precipitation 2.34 2.65  
Year to date precipitation 21.58 23.27  
Sea Level Pressure  
Sea Level Pressure 29.92 in    
Wind  
Wind Speed 4 mph (SE)    
Max Wind Speed 13 mph    
Max Gust Speed 16 mph    
Visibility 5 miles    
Events Fog , Rain , Thunderstorm    
T = Trace of Precipitation, MM = Missing Value Source: NWS Daily Summary

Daily Weather History Graph

Daily Weather History Graph

Search for Another Location

Airport or City:

Trip Planner

Search our weather history database for the weather conditions in past years. The results will help you decide how hot, cold, wet, or windy it might be!

Date:

Astronomy

Aug. 21, 2014 Rise Set
Actual Time 6:04 AM CDT 7:43 PM CDT
Civil Twilight 5:35 AM CDT 8:13 PM CDT
Nautical Twilight 4:59 AM CDT 8:49 PM CDT
Astronomical Twilight 4:20 AM CDT 9:27 PM CDT
Moon 2:33 AM CDT (8/21) 5:13 PM CDT (8/21)
Length of Visible Light 14h 38m
Length of Day
13h 38m
Waning Crescent, 13% of the Moon is Illuminated
Aug 21
Waning Crescent
Aug 25
New
Sep 2
First Quarter
Sep 8
Full
Sep 15
Last Quarter

Hourly Weather History & Observations

Time (CDT) Temp. Dew Point Humidity Pressure Visibility Wind Dir Wind Speed Gust Speed Precip Events Conditions
12:52 AM 68.0 °F 66.0 °F 93% 29.91 in 8.0 mi North 3.5 mph - N/A   Clear
1:52 AM 68.0 °F 66.0 °F 93% 29.91 in 7.0 mi Calm Calm - N/A   Clear
2:52 AM 66.0 °F 64.9 °F 96% 29.90 in 5.0 mi North 3.5 mph - N/A   Clear
3:39 AM 66.9 °F 66.0 °F 97% 29.93 in 6.0 mi Calm Calm - N/A   Mostly Cloudy
3:52 AM 66.9 °F 64.9 °F 93% 29.90 in 5.0 mi Calm Calm - N/A   Mostly Cloudy
4:52 AM 68.0 °F 66.0 °F 93% 29.89 in 6.0 mi Calm Calm - N/A   Clear
5:52 AM 66.9 °F 66.0 °F 97% 29.90 in 6.0 mi SSW 3.5 mph - N/A   Clear
6:52 AM 69.1 °F 66.9 °F 93% 29.90 in 10.0 mi Calm Calm - 0.00 in Rain Light Rain
7:52 AM 70.0 °F 66.9 °F 90% 29.95 in 9.0 mi Variable 4.6 mph - 0.02 in Rain Light Rain
8:52 AM 72.0 °F 69.1 °F 91% 29.93 in 9.0 mi South 5.8 mph - 0.00 in   Clear
9:52 AM 73.0 °F 69.1 °F 87% 29.90 in 10.0 mi ESE 3.5 mph - N/A   Clear
10:52 AM 73.9 °F 70.0 °F 87% 29.91 in 10.0 mi SSW 5.8 mph - N/A   Mostly Cloudy
11:44 AM 75.0 °F 69.1 °F 82% 29.94 in 10.0 mi SSW 5.8 mph - 0.00 in Rain Light Rain
11:52 AM 75.0 °F 69.1 °F 82% 29.91 in 10.0 mi SSW 9.2 mph - 0.00 in   Partly Cloudy
12:52 PM 73.0 °F 70.0 °F 90% 29.94 in 2.5 mi Calm Calm - 0.06 in Rain Rain
1:08 PM 73.0 °F 70.0 °F 90% 29.98 in 4.0 mi Calm Calm - 0.03 in Rain Light Rain
1:52 PM 72.0 °F 71.1 °F 97% 29.93 in 4.0 mi East 4.6 mph - 0.11 in Rain Light Rain
2:09 PM 73.0 °F 71.1 °F 93% 29.95 in 9.0 mi East 4.6 mph - 0.01 in   Mostly Cloudy
2:28 PM 73.0 °F 70.0 °F 90% 29.98 in 10.0 mi Calm Calm - 0.01 in Thunderstorm Mostly Cloudy
2:43 PM 73.0 °F 70.0 °F 90% 29.96 in 4.0 mi ENE 3.5 mph - 0.02 in Rain Light Rain
2:52 PM 73.0 °F 70.0 °F 90% 29.93 in 6.0 mi East 5.8 mph - 0.03 in Rain Light Rain
3:15 PM 73.0 °F 70.0 °F 90% 29.96 in 3.0 mi Calm Calm - 0.04 in Rain Light Rain
3:39 PM 73.0 °F 71.1 °F 93% 29.95 in 1.8 mi SE 6.9 mph - 0.11 in Rain Rain
3:44 PM 72.0 °F 71.1 °F 97% 29.94 in 3.0 mi ESE 6.9 mph - 0.12 in Rain Light Rain
3:52 PM 72.0 °F 71.1 °F 97% 29.91 in 4.0 mi ESE 5.8 mph - 0.13 in Rain Light Rain
4:03 PM 72.0 °F 71.1 °F 97% 29.93 in 4.0 mi SSE 8.1 mph - 0.01 in Rain Light Rain
4:16 PM 73.0 °F 71.1 °F 93% 29.92 in 6.0 mi SSE 9.2 mph - 0.01 in   Mostly Cloudy
4:52 PM 73.0 °F 70.0 °F 90% 29.90 in 4.0 mi SE 9.2 mph - 0.01 in   Mostly Cloudy
5:52 PM 73.9 °F 71.1 °F 91% 29.88 in 4.0 mi SE 8.1 mph - N/A   Mostly Cloudy
6:52 PM 73.0 °F 71.1 °F 93% 29.88 in 3.0 mi SE 8.1 mph - N/A   Overcast
7:52 PM 72.0 °F 71.1 °F 97% 29.89 in 4.0 mi SE 4.6 mph - N/A   Overcast
8:09 PM 72.0 °F 70.0 °F 93% 29.92 in 5.0 mi ESE 3.5 mph - N/A   Scattered Clouds
8:18 PM 72.0 °F 70.0 °F 93% 29.92 in 3.0 mi East 3.5 mph - N/A   Mostly Cloudy
8:31 PM 72.0 °F 70.0 °F 93% 29.93 in 1.8 mi SE 3.5 mph - N/A   Mostly Cloudy
8:44 PM 72.0 °F 71.1 °F 97% 29.92 in 0.8 mi ESE 3.5 mph - N/A   Overcast
8:52 PM 72.0 °F 71.1 °F 97% 29.90 in 0.5 mi Calm Calm - N/A Fog Fog
10:35 PM 71.1 °F 70.0 °F 96% 29.95 in 0.2 mi Calm Calm - N/A Fog Fog
10:52 PM 71.1 °F 70.0 °F 96% 29.93 in 0.2 mi Calm Calm - N/A Fog Fog
11:52 PM 71.1 °F 70.0 °F 96% 29.92 in 0.2 mi East 3.5 mph - N/A Fog Fog